This is the latest recevied weather packets stored in our database for station/object K4DNM. If no packets are shown the sender has not sent any weather packets the latest 10 day(s).
| Time | Temp. | Humidity | Pressure | Rain* | Wind** | Luminosity | Snow |
|---|---|---|---|---|---|---|---|
| 1778105618 | 26.11° C | 58% | 1009.9 hPa | 0 mm | - | 48 W/m² | - |
| 1778105318 | 26.11° C | 59% | 1009.9 hPa | 0 mm | - | 51 W/m² | - |
| 1778105018 | 26.11° C | 58% | 1010.1 hPa | 0 mm | - | 63 W/m² | - |
| 1778104718 | 26.11° C | 59% | 1010.2 hPa | 0 mm | - | 81 W/m² | - |
| 1778104418 | 26.11° C | 59% | 1010.3 hPa | 0 mm | - | 111 W/m² | - |
| 1778104115 | 26.11° C | 59% | 1010.3 hPa | 0 mm | - | 128 W/m² | - |
| 1778103818 | 26.11° C | 59% | 1010.4 hPa | 0 mm | - | 154 W/m² | - |
| 1778103515 | 26.11° C | 60% | 1010.4 hPa | 0 mm | - | 129 W/m² | - |
| 1778103214 | 26.11° C | 60% | 1010.3 hPa | 0 mm | - | 110 W/m² | - |
| 1778102915 | 26.11° C | 58% | 1010.3 hPa | 0 mm | - | 114 W/m² | - |
| 1778102615 | 26.11° C | 61% | 1010.4 hPa | 0 mm | - | 133 W/m² | - |
| 1778102315 | 26.11° C | 60% | 1010.4 hPa | 0 mm | - | 170 W/m² | - |
| 1778102015 | 25.56° C | 62% | 1010.5 hPa | 0 mm | - | 160 W/m² | - |
| 1778101714 | 25.56° C | 61% | 1010.4 hPa | 0 mm | - | 174 W/m² | - |
| 1778101416 | 25.56° C | 62% | 1010.3 hPa | 0 mm | - | 217 W/m² | - |
| 1778101113 | 25° C | 62% | 1010.5 hPa | 0 mm | - | 188 W/m² | - |
| 1778100813 | 25° C | 63% | 1010.4 hPa | 0 mm | - | 173 W/m² | - |
| 1778100517 | 25° C | 64% | 1010.4 hPa | 0.25 mm | - | 175 W/m² | - |
| 1778100211 | 25° C | 65% | 1010.4 hPa | 0.25 mm | - | 170 W/m² | - |
| 1778099911 | 25° C | 69% | 1010.4 hPa | 0.25 mm | - | 175 W/m² | - |
| 1778099612 | 24.44° C | 68% | 1010.4 hPa | 0.25 mm | - | 197 W/m² | - |
| 1778099311 | 23.89° C | 68% | 1010.4 hPa | 0.25 mm | - | 224 W/m² | - |
| 1778099012 | 23.89° C | 73% | 1010.6 hPa | 0.25 mm | - | 206 W/m² | - |
| 1778098711 | 23.33° C | 72% | 1010.2 hPa | 0.25 mm | - | 206 W/m² | - |
| 1778098412 | 23.33° C | 71% | 1010.1 hPa | 0.25 mm | - | 169 W/m² | - |
* Rain latest hour (hover to see other rain measurements)
** Current wind speed in m/s (hover to see current wind gust speed)